Tracking 30986 objects as of 9-Jul-2025
HD Live streaming from Space Station
objects crossing your sky now

CZ-6A DEB

Track CZ-6A DEB now!
10-day predictions


NORAD ID: 54541
Int'l Code: 2022-151KR
Perigee: 833.3 km
Apogee: 919.7 km
Inclination: 98.8 °
Period: 102.3 minutes
Semi major axis: 7247 km
RCS: Unknown
Launch date: November 11, 2022
Source: People's Republic of China (PRC)
Launch site: Taiyaun Space Center, China (TSC)

Note: This is SATELLITE DEBRIS
Your satellite tracking list
Your tracking list is empty




NASA's NSSDC Master Catalog

Two Line Element Set (TLE):
1 54541U 22151KR  25190.52502533 -.00000027  00000-0  96533-5 0  9993
2 54541  98.8431 188.1536 0059631 248.4644 111.0162 14.07090755136170
Source of the keplerian elements: AFSPC